• In Germany
  • List of Countries
  • For 7 days
  • Water Temperature
  • Satellite Maps
  • Weather Map
  • Weather Widgets
  • user-avatar
    Login

    Hourly Weather Molepolole

    Today, 25 September, Tuesday

    Time Temperature Precipitation Wind Pressure Humidity
    00:00 +25°C° 0 mm 3 mps 666 mmHg 22%
    01:00 +24°C° 0 mm 3 mps 666 mmHg 23%
    02:00 +22°C° 0 mm 4 mps 665 mmHg 24%
    03:00 +21°C° 0 mm 4 mps 665 mmHg 27%
    04:00 +21°C° 0 mm 4 mps 665 mmHg 30%
    05:00 +20°C° 0 mm 4 mps 665 mmHg 33%
    06:00 +21°C° 0 mm 5 mps 665 mmHg 32%
    07:00 +22°C° 0 mm 6 mps 666 mmHg 32%
    08:00 +23°C° 0 mm 7 mps 666 mmHg 31%
    09:00 +27°C° 0 mm 7 mps 666 mmHg 27%
    10:00 +29°C° 0 mm 6 mps 667 mmHg 23%
    11:00 +32°C° 0 mm 6 mps 667 mmHg 19%
    12:00 +33°C° 0 mm 5 mps 666 mmHg 16%
    13:00 +34°C° 0 mm 5 mps 666 mmHg 13%
    14:00 +35°C° 0 mm 4 mps 665 mmHg 11%
    15:00 +35°C° 0 mm 3 mps 665 mmHg 10%
    16:00 +35°C° 0 mm 3 mps 664 mmHg 10%
    17:00 +35°C° 0 mm 3 mps 664 mmHg 9%
    18:00 +32°C° 0 mm 2 mps 664 mmHg 10%
    19:00 +30°C° 0 mm 2 mps 664 mmHg 12%
    20:00 +28°C° 0 mm 2 mps 663 mmHg 13%
    21:00 +27°C° 0 mm 2 mps 663 mmHg 15%
    22:00 +26°C° 0 mm 2 mps 663 mmHg 16%
    23:00 +25°C° 0 mm 2 mps 664 mmHg 17%

    Tomorrow, 26 September, Wednesday

    Time Temperature Precipitation Wind Pressure Humidity
    00:00 +25°C° 0 mm 3 mps 663 mmHg 19%
    01:00 +24°C° 0 mm 3 mps 663 mmHg 21%
    02:00 +24°C° 0 mm 3 mps 663 mmHg 22%
    03:00 +22°C° 0 mm 3 mps 662 mmHg 24%
    04:00 +21°C° 0 mm 3 mps 662 mmHg 26%
    05:00 +21°C° 0 mm 3 mps 662 mmHg 28%
    06:00 +22°C° 0 mm 3 mps 663 mmHg 25%
    07:00 +24°C° 0 mm 2 mps 664 mmHg 23%
    08:00 +26°C° 0 mm 2 mps 665 mmHg 20%
    09:00 +28°C° 0 mm 3 mps 665 mmHg 17%
    10:00 +31°C° 0 mm 3 mps 666 mmHg 15%
    11:00 +34°C° 0 mm 3 mps 666 mmHg 12%
    12:00 +35°C° 0 mm 3 mps 666 mmHg 11%
    13:00 +37°C° 0 mm 3 mps 665 mmHg 9%
    14:00 +38°C° 0 mm 3 mps 665 mmHg 7%
    15:00 +38°C° 0 mm 3 mps 665 mmHg 7%
    16:00 +37°C° 0 mm 3 mps 664 mmHg 7%
    17:00 +37°C° 0 mm 3 mps 664 mmHg 7%
    18:00 +35°C° 0 mm 2 mps 664 mmHg 8%
    19:00 +32°C° 0 mm 2 mps 664 mmHg 9%
    20:00 +29°C° 0 mm 1 mps 664 mmHg 10%
    21:00 +29°C° 0 mm 1 mps 664 mmHg 11%
    22:00 +28°C° 0 mm 1 mps 664 mmHg 11%
    23:00 +27°C° 0 mm 1 mps 664 mmHg 12%

    Day after tomorrow, 27 September, Thursday

    Time Temperature Precipitation Wind Pressure Humidity
    00:00 +26°C° 0 mm 1 mps 664 mmHg 13%
    01:00 +25°C° 0 mm 1 mps 664 mmHg 13%
    02:00 +25°C° 0 mm 2 mps 663 mmHg 14%
    03:00 +24°C° 0 mm 1 mps 663 mmHg 15%
    04:00 +24°C° 0 mm 1 mps 663 mmHg 15%
    05:00 +23°C° 0 mm 1 mps 663 mmHg 16%
    06:00 +25°C° 0 mm 2 mps 664 mmHg 15%
    07:00 +27°C° 0 mm 2 mps 665 mmHg 13%
    08:00 +29°C° 0 mm 2 mps 666 mmHg 12%
    09:00 +31°C° 0 mm 3 mps 666 mmHg 11%
    10:00 +34°C° 0 mm 4 mps 667 mmHg 11%
    11:00 +37°C° 0 mm 5 mps 667 mmHg 10%
    12:00 +37°C° 0 mm 4 mps 666 mmHg 9%
    13:00 +38°C° 0 mm 3 mps 666 mmHg 8%
    14:00 +39°C° 0 mm 2 mps 665 mmHg 7%
    15:00 +39°C° 0 mm 2 mps 665 mmHg 7%
    16:00 +38°C° 0 mm 2 mps 664 mmHg 7%
    17:00 +37°C° 0 mm 1 mps 664 mmHg 7%
    18:00 +35°C° 0 mm 1 mps 664 mmHg 8%
    19:00 +34°C° 0 mm 2 mps 664 mmHg 9%
    20:00 +31°C° 0 mm 2 mps 664 mmHg 10%
    21:00 +31°C° 0 mm 2 mps 664 mmHg 11%
    22:00 +30°C° 0 mm 2 mps 664 mmHg 12%
    23:00 +30°C° 0 mm 3 mps 665 mmHg 14%

    28 September, Friday

    Time Temperature Precipitation Wind Pressure Humidity
    00:00 +29°C° 0 mm 2 mps 664 mmHg 17%
    01:00 +28°C° 0 mm 2 mps 664 mmHg 20%
    02:00 +27°C° 0 mm 2 mps 663 mmHg 23%
    03:00 +26°C° 0 mm 2 mps 663 mmHg 25%
    04:00 +25°C° 0 mm 2 mps 663 mmHg 28%
    05:00 +24°C° 0 mm 2 mps 663 mmHg 31%
    06:00 +26°C° 0 mm 3 mps 664 mmHg 30%
    07:00 +27°C° 0 mm 4 mps 665 mmHg 29%
    08:00 +29°C° 0 mm 5 mps 666 mmHg 27%
    09:00 +32°C° 0 mm 5 mps 666 mmHg 22%
    10:00 +35°C° 0 mm 6 mps 666 mmHg 17%
    11:00 +39°C° 0 mm 6 mps 667 mmHg 12%
    12:00 +39°C° 0 mm 5 mps 666 mmHg 11%
    13:00 +40°C° 0 mm 4 mps 665 mmHg 10%
    14:00 +40°C° 0 mm 4 mps 665 mmHg 8%
    15:00 +38°C° 0 mm 4 mps 664 mmHg 11%
    16:00 +36°C° 0 mm 5 mps 664 mmHg 13%
    17:00 +35°C° 0 mm 6 mps 664 mmHg 16%
    18:00 +33°C° 0.3 mm 5 mps 664 mmHg 19%
    19:00 +32°C° 0.3 mm 5 mps 665 mmHg 22%
    20:00 +29°C° 0.3 mm 5 mps 665 mmHg 26%
    21:00 +29°C° 0.4 mm 5 mps 665 mmHg 27%
    22:00 +29°C° 0.4 mm 5 mps 665 mmHg 28%
    23:00 +28°C° 0.4 mm 5 mps 666 mmHg 28%

    29 September, Saturday

    Time Temperature Precipitation Wind Pressure Humidity
    00:00 +28°C° 0.3 mm 4 mps 666 mmHg 29%
    01:00 +27°C° 0.3 mm 3 mps 665 mmHg 30%
    02:00 +27°C° 0.3 mm 2 mps 665 mmHg 31%
    03:00 +26°C° 0 mm 3 mps 665 mmHg 31%
    04:00 +26°C° 0 mm 3 mps 665 mmHg 32%
    05:00 +25°C° 0 mm 3 mps 665 mmHg 33%
    06:00 +26°C° 0 mm 3 mps 666 mmHg 31%
    07:00 +27°C° 0 mm 4 mps 666 mmHg 29%
    08:00 +28°C° 0 mm 4 mps 667 mmHg 27%
    09:00 +30°C° 0 mm 5 mps 667 mmHg 24%
    10:00 +33°C° 0 mm 5 mps 668 mmHg 22%
    11:00 +35°C° 0 mm 6 mps 668 mmHg 19%
    12:00 +36°C° 0 mm 5 mps 668 mmHg 18%
    13:00 +36°C° 0 mm 5 mps 667 mmHg 16%
    14:00 +37°C° 0 mm 4 mps 667 mmHg 14%
    15:00 +37°C° 0 mm 5 mps 667 mmHg 15%
    16:00 +36°C° 0 mm 5 mps 666 mmHg 15%
    17:00 +36°C° 0 mm 5 mps 666 mmHg 15%
    18:00 +34°C° 0.2 mm 5 mps 667 mmHg 21%
    19:00 +30°C° 0.2 mm 5 mps 667 mmHg 26%
    20:00 +28°C° 0.2 mm 5 mps 668 mmHg 31%
    21:00 +27°C° 0.2 mm 7 mps 668 mmHg 39%
    22:00 +24°C° 0.2 mm 8 mps 668 mmHg 46%
    23:00 +23°C° 0.2 mm 10 mps 669 mmHg 53%

    30 September, Sunday

    Time Temperature Precipitation Wind Pressure Humidity
    00:00 +22°C° 0.1 mm 9 mps 669 mmHg 55%
    01:00 +21°C° 0.1 mm 9 mps 669 mmHg 56%
    02:00 +19°C° 0.1 mm 9 mps 669 mmHg 57%
    03:00 +20°C° 0 mm 8 mps 669 mmHg 56%
    04:00 +20°C° 0 mm 7 mps 669 mmHg 55%
    05:00 +20°C° 0 mm 6 mps 669 mmHg 54%
    06:00 +20°C° 0 mm 7 mps 669 mmHg 54%
    07:00 +20°C° 0 mm 7 mps 670 mmHg 54%
    08:00 +20°C° 0 mm 8 mps 670 mmHg 53%
    09:00 +22°C° 0 mm 8 mps 670 mmHg 49%
    10:00 +23°C° 0 mm 8 mps 671 mmHg 45%
    11:00 +24°C° 0 mm 8 mps 671 mmHg 41%
    12:00 +27°C° 0 mm 7 mps 670 mmHg 37%
    13:00 +28°C° 0 mm 7 mps 670 mmHg 33%
    14:00 +29°C° 0 mm 7 mps 670 mmHg 29%
    15:00 +29°C° 0 mm 6 mps 669 mmHg 29%
    16:00 +29°C° 0 mm 6 mps 669 mmHg 28%
    17:00 +29°C° 0 mm 6 mps 669 mmHg 28%
    18:00 +27°C° 0 mm 5 mps 669 mmHg 31%
    19:00 +26°C° 0 mm 5 mps 669 mmHg 33%
    20:00 +25°C° 0 mm 4 mps 669 mmHg 36%
    21:00 +23°C° 0 mm 4 mps 669 mmHg 39%
    22:00 +22°C° 0 mm 4 mps 670 mmHg 42%
    23:00 +21°C° 0 mm 4 mps 670 mmHg 45%
    Show more